Location: ???????
(56.2167°N, 38.0500°E)
Time: 05:55:04
(UTC+00:00)

NOSS 3-1 (C) - Pass Details

Date: 19 May 2025
Orbit: 632 x 1571 km, 63.4° (Epoch: 12 June)

Event Time Altitude Azimuth Distance (km) Brightness Sun altitude
Rises 18:31:35 0° 192° (SSW) 3,008 5.7 -5.6°
Reaches altitude 10° 18:33:55 10° 182° (S) 2,168 4.9 -5.8°
Maximum altitude 18:38:14 32° 120° (ESE) 1,328 3.8 -6.2°
Drops below altitude 10° 18:43:21 10° 60° (ENE) 2,592 5.7 -6.6°
Sets 18:46:23 0° 51° (NE) 3,700 6.6 -6.9°
